Вернуться в каталог

COSMOS 1072

АктивенВоенныеPO
NORAD 11238·PAYLOAD·🇷🇺 Russia

Запущен Jan 16, 1979 с Plesetsk Cosmodrome

Loading…

Ближайшие Пролёты (ближайшие 24 часа)

TLE

СвежийSource: Space-Track

Эпоха: Sep 14, 2026, 15:01 UTC

1 11238U 79003A   26257.62635373  .00000055  00000-0  41150-4 0  9996
2 11238  82.9419 139.5915 0038546  78.7350 299.3324 13.74388205389664

Отслеживайте COSMOS 1072 в реальном времени с AllMySat

Download on the App Store